Location: Burzi?i
(45.0869°N, 16.0577°E)
Time: 04:24:22
(UTC+00:00)

CZ-4C R/B - Pass Details

Date: 29 October 2020
Orbit: 624 x 1378 km, 63.4° (Epoch: 01 December)

Event Time Altitude Azimuth Distance (km) Brightness Sun altitude
Rises 16:52:35 0° 319° (NW) 3,599 6.0 -12.0°
Reaches altitude 10° 16:55:42 10° 335° (NNW) 2,788 5.1 -12.5°
Maximum altitude 17:00:40 21° 23° (NNE) 2,259 4.1 -13.4°
Enters shadow 17:04:27 15° 59° (ENE) 2,762 4.3 -14.1°
